Terminal Aerodrome Forecast
Issued by NWS Upton, NY

Home | Current Version | Previous Version | Text Only | Print | Product List | Glossary On
Versions: 1 2 3 4 5 6 7 8 9 10 11 12 13 14 15 16 17 18 19 20 21 22 23 24 25 26 27 28 29
042
FTUS41 KOKX 042322
TAFJFK
TAF
KJFK 042322Z 0500/0606 08005KT P6SM BKN150 BKN250
     FM050700 13004KT 6SM -RA SCT030 OVC060
     FM050900 15005KT 4SM -RA SCT012 BKN020
      TEMPO 0509/0512 BKN012
     FM051200 18007KT 4SM -RA BKN010 OVC020
     FM051500 21008KT 6SM BR BKN015 BKN030
     FM051800 27012G17KT P6SM SCT030 SCT250
     FM052100 30011KT P6SM SCT250
     FM060200 32011KT P6SM SCT250=

USA.gov is the U.S. government's official web portal to all federal, state and local government web resources and services.